Location: Bourg-d�Oueil
(42.8588°N, 0.4991°E)
Time: 20:07:29
(UTC+00:00)

ATLAS CENTAUR R/B - Pass Details

Date: 16 June 2021
Orbit: 472 x 671 km, 64.6° (Epoch: 13 June)

Event Time Altitude Azimuth Distance (km) Brightness Sun altitude
Rises 23:16:33 0° 317° (NW) 2,821 5.8 -23.0°
Reaches altitude 10° 23:18:54 10° 307° (NW) 1,950 4.7 -23.1°
Enters shadow 23:22:33 32° 252° (WSW) 1,069 2.6 -23.2°
